Retour au catalogue

STARLINK-3825

ActifCommunicationsVLEO
NORAD 52478·PAYLOAD·🇺🇸 United States

Lancé May 6, 2022 depuis Cape Canaveral Space Force Station

Loading…

Prochains Passages (prochaines 24 heures)

TLE

FraisSource: CelesTrak SupGP

Époque: Sep 14, 2026, 13:56 UTC

1 52478C 22049AD  26257.58104167  .00015933  00000+0  45609-3 0  2571
2 52478  53.1589 281.9678 0001164  65.5243 185.5752 15.35375767    10

Suivez STARLINK-3825 en temps réel avec AllMySat

Download on the App Store